Weather History for Lacon, IL

Change the Weather History Date:

Wednesday, February 20, 2013

  Actual Average (KPIA) Record (KPIA)
Temperature  
Mean Temperature 13 °F 31 °F  
Max Temperature 21 °F 39 °F 67 °F (1930)
Min Temperature 5 °F 23 °F -13 °F (1885)
Degree Days  
Heating Degree Days 52 34  
Month to date heating degree days 737  
Since 1 July heating degree days 4258  
Cooling Degree Days 0 0  
Month to date cooling degree days 0  
Year to date cooling degree days 0  
Moisture  
Dew Point 7 °F    
Average Humidity 72    
Maximum Humidity 89    
Minimum Humidity 61    
Precipitation  
Precipitation 0.00 in 0.07 in 1.77 in (1977)
Month to date precipitation 1.19  
Year to date precipitation 2.97  
Snow  
Snow 0.00 in 0.20 in 6.00 in (1904)
Month to date snowfall 4.7  
Since 1 July snowfall 19.8  
Snow Depth -    
Sea Level Pressure  
Sea Level Pressure 30.35 in    
Wind  
Wind Speed 8 mph (WNW)    
Max Wind Speed 14 mph    
Max Gust Speed 18 mph    
Visibility 10 miles    
Events      
T = Trace of Precipitation, MM = Missing Value Source: NWS Daily Summary

Daily Weather History Graph

Daily Weather History Graph

Search for Another Location

Airport:

Trip Planner

Search our weather history database for the weather conditions in past years. The results will help you decide how hot, cold, wet, or windy it might be!

Date:

Astronomy

Feb. 20, 2013 Rise Set
Actual Time 6:44 AM CST 5:38 PM CST
Civil Twilight 6:16 AM CST 6:06 PM CST
Nautical Twilight 5:44 AM CST 6:38 PM CST
Astronomical Twilight 5:13 AM CST 7:10 PM CST
Moon 12:58 PM CST (2/20) 3:06 AM CST (2/20)
Length of Visible Light 11h 49m
Length of Day
10h 53m
Waxing Gibbous, 76% of the Moon is Illuminated
Feb 20
Waxing Gibbous
Feb 25
Full
Mar 4
Last Quarter
Mar 11
New
Mar 19
First Quarter

Hourly Weather History & Observations

Time (CST) Temp. Windchill Dew Point Humidity Pressure Visibility Wind Dir Wind Speed Gust Speed Precip Events Conditions
12:15 AM 10.9 °F -2.6 °F 3.9 °F 73% 30.26 in 10.0 mi WNW 10.4 mph 17.3 mph N/A   Clear
12:35 AM 10.4 °F -3.3 °F 3.6 °F 74% 30.28 in 10.0 mi WNW 10.4 mph 16.1 mph N/A   Clear
12:55 AM 10.0 °F -5.2 °F 2.8 °F 73% 30.29 in 10.0 mi WNW 12.7 mph 18.4 mph N/A   Clear
1:15 AM 9.5 °F -6.6 °F 2.7 °F 74% 30.29 in 10.0 mi WNW 13.8 mph 18.4 mph N/A   Clear
1:35 AM 9.0 °F -4.2 °F 1.8 °F 73% 30.29 in 10.0 mi WNW 9.2 mph 17.3 mph N/A   Clear
1:55 AM 8.6 °F -7.0 °F 0.7 °F 70% 30.31 in 10.0 mi WNW 12.7 mph 18.4 mph N/A   Clear
2:15 AM 8.4 °F -7.3 °F 1.0 °F 72% 30.32 in 10.0 mi WNW 12.7 mph 18.4 mph N/A   Clear
2:35 AM 8.6 °F -3.7 °F 1.4 °F 73% 30.32 in 10.0 mi WNW 8.1 mph 16.1 mph N/A   Clear
2:55 AM 7.7 °F -8.9 °F 0.5 °F 72% 30.31 in 10.0 mi NW 13.8 mph 18.4 mph N/A   Clear
3:15 AM 7.5 °F -3.9 °F 0.9 °F 74% 30.31 in 10.0 mi NW 6.9 mph - N/A   Clear
3:35 AM 7.3 °F -7.1 °F -0.2 °F 71% 30.32 in 10.0 mi NW 10.4 mph - N/A   Clear
3:55 AM 7.2 °F -6.4 °F 0.3 °F 74% 30.33 in 10.0 mi WNW 9.2 mph - N/A   Clear
4:15 AM 6.8 °F -6.9 °F -0.4 °F 72% 30.33 in 10.0 mi WNW 9.2 mph - N/A   Clear
4:35 AM 6.8 °F -5.9 °F -0.4 °F 72% 30.34 in 10.0 mi WNW 8.1 mph - N/A   Clear
4:55 AM 6.6 °F -7.1 °F -0.4 °F 73% 30.33 in 10.0 mi West 9.2 mph - N/A   Clear
5:15 AM 6.4 °F -5.2 °F -0.4 °F 74% 30.34 in 10.0 mi WNW 6.9 mph - N/A   Clear
5:35 AM 6.4 °F -5.2 °F -0.4 °F 74% 30.33 in 10.0 mi WNW 6.9 mph - N/A   Clear
5:55 AM 6.3 °F -5.4 °F -0.4 °F 74% 30.34 in 10.0 mi WNW 6.9 mph - N/A   Clear
6:15 AM 6.3 °F -6.5 °F -0.4 °F 74% 30.34 in 10.0 mi West 8.1 mph - N/A   Clear
6:35 AM 5.9 °F -3.0 °F -0.4 °F 75% 30.35 in 10.0 mi WNW 4.6 mph - N/A   Clear
6:55 AM 5.9 °F -4.5 °F -1.1 °F 73% 30.35 in 10.0 mi NW 5.8 mph - N/A   Clear
7:15 AM 6.8 °F -5.9 °F -0.4 °F 72% 30.36 in 10.0 mi WNW 8.1 mph - N/A   Clear
7:35 AM 7.2 °F -5.4 °F -0.4 °F 71% 30.37 in 10.0 mi NW 8.1 mph - N/A   Clear
7:55 AM 7.9 °F -4.6 °F -0.2 °F 70% 30.37 in 10.0 mi NW 8.1 mph - N/A   Clear
8:15 AM 9.0 °F -2.2 °F 0.7 °F 69% 30.38 in 10.0 mi NW 6.9 mph - N/A   Clear
8:35 AM 10.4 °F -1.5 °F 1.4 °F 67% 30.38 in 10.0 mi NW 8.1 mph - N/A   Clear
8:55 AM 10.8 °F 0.0 °F 1.2 °F 65% 30.38 in 10.0 mi NW 6.9 mph - N/A   Clear
9:15 AM 11.7 °F 1.1 °F 1.9 °F 65% 30.38 in 10.0 mi WNW 6.9 mph - N/A   Clear
9:35 AM 12.4 °F 3.1 °F 2.3 °F 64% 30.38 in 10.0 mi NW 5.8 mph - N/A   Clear
9:55 AM 13.8 °F 6.2 °F 3.4 °F 63% 30.38 in 10.0 mi NW 4.6 mph - N/A   Clear
10:15 AM 14.5 °F 3.6 °F 3.9 °F 63% 30.38 in 10.0 mi WNW 8.1 mph - N/A   Clear
10:35 AM 15.4 °F 5.6 °F 4.1 °F 61% 30.39 in 10.0 mi WSW 6.9 mph - N/A   Clear
10:55 AM 16.7 °F 8.3 °F 5.5 °F 62% 30.38 in 10.0 mi West 5.8 mph - N/A   Clear
11:15 AM 17.1 °F 10.0 °F 6.4 °F 63% 30.38 in 10.0 mi WNW 4.6 mph - N/A   Clear
11:35 AM 17.6 °F 6.4 °F 6.8 °F 63% 30.39 in 10.0 mi West 9.2 mph - N/A   Clear
11:55 AM 18.7 °F 7.0 °F 8.4 °F 64% 30.40 in 10.0 mi West 10.4 mph - N/A   Clear
12:15 PM 19.0 °F 7.5 °F 8.1 °F 62% 30.41 in 10.0 mi West 10.4 mph - N/A   Clear
12:35 PM 19.8 °F 7.7 °F 9.9 °F 65% 30.41 in 10.0 mi WNW 11.5 mph 16.1 mph N/A   Clear
12:55 PM 20.1 °F 8.8 °F 9.3 °F 63% 30.39 in 10.0 mi West 10.4 mph 16.1 mph N/A   Clear
1:15 PM 20.5 °F 11.7 °F 9.3 °F 62% 30.38 in 10.0 mi West 6.9 mph 16.1 mph N/A   Clear
1:35 PM 20.3 °F 9.8 °F 10.4 °F 66% 30.37 in 10.0 mi WNW 9.2 mph - N/A   Clear
1:55 PM 20.5 °F 8.6 °F 10.9 °F 67% 30.37 in 10.0 mi WNW 11.5 mph 17.3 mph N/A   Clear
2:15 PM 20.7 °F 11.0 °F 11.5 °F 68% 30.36 in 10.0 mi WNW 8.1 mph - N/A   Clear
2:35 PM 20.7 °F 11.0 °F 10.8 °F 66% 30.35 in 10.0 mi WNW 8.1 mph - N/A   Clear
2:55 PM 21.2 °F 11.7 °F 11.7 °F 67% 30.35 in 10.0 mi NW 8.1 mph - N/A   Clear
3:15 PM 21.4 °F 12.8 °F 11.3 °F 65% 30.34 in 10.0 mi NW 6.9 mph - N/A   Clear
3:35 PM 21.6 °F 13.0 °F 12.0 °F 67% 30.33 in 10.0 mi NNW 6.9 mph - N/A   Clear
3:55 PM 20.7 °F 13.0 °F 11.3 °F 67% 30.34 in 10.0 mi NW 5.8 mph - N/A   Clear
4:15 PM 20.8 °F 13.2 °F 11.5 °F 67% 30.35 in 10.0 mi NW 5.8 mph - N/A   Clear
4:35 PM 20.7 °F 14.2 °F 11.1 °F 67% 30.35 in 10.0 mi WNW 4.6 mph - N/A   Clear
4:55 PM 20.5 °F - 11.8 °F 69% 30.35 in 10.0 mi Calm Calm - N/A   Clear
5:15 PM 20.3 °F 13.8 °F 12.0 °F 70% 30.35 in 10.0 mi WNW 4.6 mph - N/A   Clear
5:35 PM 19.9 °F 14.9 °F 12.7 °F 74% 30.36 in 10.0 mi WNW 3.5 mph - N/A   Clear
5:55 PM 19.4 °F 11.5 °F 12.6 °F 75% 30.36 in 10.0 mi NW 5.8 mph - N/A   Clear
6:15 PM 19.4 °F 10.4 °F 12.6 °F 75% 30.35 in 10.0 mi NW 6.9 mph - N/A   Clear
6:35 PM 19.0 °F 12.3 °F 12.7 °F 76% 30.35 in 10.0 mi NW 4.6 mph - N/A   Clear
6:55 PM 18.9 °F 13.7 °F 12.9 °F 78% 30.35 in 10.0 mi NW 3.5 mph - N/A   Clear
7:15 PM 18.5 °F 13.3 °F 13.1 °F 79% 30.35 in 10.0 mi North 3.5 mph - N/A   Clear
7:35 PM 18.5 °F 13.3 °F 12.9 °F 79% 30.34 in 10.0 mi North 3.5 mph - N/A   Clear
7:55 PM 18.0 °F - 12.7 °F 80% 30.35 in 10.0 mi Calm Calm - N/A   Clear
8:15 PM 17.4 °F - 13.1 °F 83% 30.35 in 10.0 mi Calm Calm - N/A   Clear
8:35 PM 17.2 °F - 12.7 °F 83% 30.35 in 10.0 mi Calm Calm - N/A   Clear
8:55 PM 17.6 °F 10.7 °F 12.7 °F 81% 30.35 in 10.0 mi North 4.6 mph - N/A   Clear
9:15 PM 17.6 °F 12.3 °F 12.6 °F 81% 30.35 in 10.0 mi North 3.5 mph - N/A   Clear
9:35 PM 17.4 °F - 12.6 °F 81% 30.36 in 10.0 mi Calm Calm - N/A   Clear
9:55 PM 17.2 °F - 12.4 °F 81% 30.36 in 10.0 mi Calm Calm - N/A   Clear
10:15 PM 16.9 °F - 12.4 °F 82% 30.37 in 10.0 mi Calm Calm - N/A   Clear
10:35 PM 15.8 °F - 11.8 °F 84% 30.37 in 10.0 mi Calm Calm - N/A   Clear
10:55 PM 15.4 °F - 12.6 °F 88% 30.36 in 10.0 mi Calm Calm - N/A   Clear
11:15 PM 14.9 °F - 12.2 °F 89% 30.36 in 10.0 mi Calm Calm - N/A   Clear
11:35 PM 15.4 °F - 12.2 °F 87% 30.37 in 10.0 mi Calm Calm - N/A   Clear
11:55 PM 15.1 °F - 11.8 °F 87% 30.37 in 10.0 mi Calm Calm - N/A   Clear